This is the latest recevied weather packets stored in our database for station/object DD3UTS-13. If no packets are shown the sender has not sent any weather packets the latest 10 day(s).
| Time | Temp. | Humidity | Pressure | Rain* | Wind** | Luminosity | Snow |
|---|---|---|---|---|---|---|---|
| 1778066432 | 18.33° C | 57% | 1005.5 hPa | 0 mm | - | 608 W/m² | - |
| 1778066131 | 18.33° C | 58% | 1005.4 hPa | 0 mm | - | 426 W/m² | - |
| 1778065831 | 18.33° C | 59% | 1005.6 hPa | 0 mm | - | 620 W/m² | - |
| 1778065532 | 18.33° C | 61% | 1005.6 hPa | 0 mm | - | 596 W/m² | - |
| 1778065232 | 18.33° C | 61% | 1005.5 hPa | 0 mm | - | 596 W/m² | - |
| 1778064632 | 18.33° C | 60% | 1005.5 hPa | 0 mm | - | 515 W/m² | - |
| 1778064332 | 18.33° C | 61% | 1005.7 hPa | 0 mm | - | 551 W/m² | - |
| 1778064032 | 17.78° C | 61% | 1005.5 hPa | 0 mm | - | 663 W/m² | - |
| 1778063732 | 17.78° C | 60% | 1005.4 hPa | 0 mm | - | 599 W/m² | - |
| 1778063432 | 18.33° C | 59% | 1005.6 hPa | 0 mm | - | 644 W/m² | - |
| 1778063132 | 18.33° C | 60% | 1005.7 hPa | 0 mm | - | 591 W/m² | - |
| 1778062831 | 18.89° C | 61% | 1005.6 hPa | 0 mm | - | 630 W/m² | - |
| 1778062531 | 18.33° C | 61% | 1005.7 hPa | 0 mm | - | 627 W/m² | - |
| 1778062232 | 17.78° C | 63% | 1005.5 hPa | 0 mm | - | 592 W/m² | - |
| 1778061931 | 17.78° C | 63% | 1005.2 hPa | 0 mm | - | 691 W/m² | - |
| 1778061631 | 17.78° C | 63% | 1005.2 hPa | 0 mm | - | 264 W/m² | - |
| 1778061332 | 17.78° C | 62% | 1005.2 hPa | 0 mm | - | 713 W/m² | - |
| 1778061032 | 17.78° C | 65% | 1005.2 hPa | 0 mm | - | 646 W/m² | - |
| 1778060732 | 17.22° C | 64% | 1005.2 hPa | 0 mm | - | 638 W/m² | - |
| 1778060432 | 17.22° C | 65% | 1005.1 hPa | 0 mm | - | 591 W/m² | - |
| 1778060131 | 17.22° C | 66% | 1005 hPa | 0 mm | - | 563 W/m² | - |
| 1778059832 | 16.67° C | 67% | 1005.1 hPa | 0 mm | - | 558 W/m² | - |
| 1778059532 | 16.67° C | 65% | 1005 hPa | 0 mm | - | 260 W/m² | - |
| 1778059232 | 17.22° C | 67% | 1005 hPa | 0 mm | - | 418 W/m² | - |
| 1778058931 | 16.67° C | 67% | 1005.1 hPa | 0 mm | - | 584 W/m² | - |
* Rain latest 24 hours (hover to see other rain measurements)
** Current wind speed in m/s (hover to see current wind gust speed)